COSMOS 1275 DEB, 12676

Orbit data source: Space-Track

COSMOS 1275 DEB, 12676 is space debris in LEO originally from a launch on Thu, 04 Jun 1981 UTC launched from the Plesetsk Missile And Space Complex (PKMTR). Debris objects in space refer to the collection of defunct objects orbiting the Earth. Examples of debris include non-operational satellites, rocket bodies, and fragments generated from explosions, collisions, or faulty payload assembly.

Loading next visibility...
Identifier
12676, 1981-053AG
Orbit
LEO
Country
Flag of CISCIS
Related business
Manufacturer
Unknown
Mission
Spacecraft
Bus & Motor
Unknown
Mass
Unknown
Launch date (UTC)
1981-06-04 (44 years ago)
Launch vehicle
Unknown
Launch site
Plesetsk Missile And Space Complex (PKMTR)
Object type
Payload
Rocket body
Debris
Shape & HBR
Unknown
Radar Cross Section
Medium (>0.1 m² and <1 m²)

Expand to show TLE details & history
Last TLE update: 9 hours ago

TLE from 9 hours ago
0 COSMOS 1275 DEB
1 12676U 81053AG  25242.82513302  .00000690  00000-0  57791-3 0  9995
2 12676  82.9479 339.8774 0044227 203.5923 276.3998 13.86472617220482
Epoch: 2025-08-30T19:48Z
TLE epoch observation values (Epoch: 2025-08-30T19:48:11.492Z)
Latitude
59.84834°
Longitude
-128.65534°
Altitude
947.727 km
Speed
7.385 km/s
True Right ascension
09h 50m 35s
True Declination
59° 42' 09"
Sunlit
Object was in daylight at epoch
Visualization orbit readout
Latitude
Unknown
Longitude
Unknown
Altitude
Unknown
Speed
Unknown
Apparent Right ascension
Unknown
Apparent Declination
Unknown
Sunlit
N/A
Visualization observer readout
Local Sidereal Time
20:12:55
Azimuth
Unknown
Elevation
Unknown
Doppler factor
Unknown
Orbital elements
Apogee altitude
970.509 km
Perigee altitude
905.793 km
Semi-major axis
7,316.288 km
Eccentricity
0.00442
Inclination
82.9479°
RAAN
339.8774°
Arg. of periapsis
203.5923°
True anomaly
275.89585°
Mean anomaly
276.3998°
Eccentric anomaly
276.14786°
Mean motion
3.46822 °/min
Orbital period
103.8 mins
BSTAR
0.00057791
Loading maneuver chart data...
Computing Atmospheric mass density...
Loading historical data...
Loading historical data...
Loading historical data...
Loading historical data...
Loading historical data...
Loading historical data...
Loading historical data...

Documentation

Showing up to 5 results
|